North Adams, MA

10:45 AM EDT on August 21, 2017 (GMT -0400)
Harriman And West

Weather History for KAQW - January, 2014

Change the Weather History Date:

Thursday, January 30, 2014

  Actual Average Record
Temperature  
Mean Temperature 14 °F -  
Max Temperature 27 °F 30 °F 59 °F (2013)
Min Temperature 0 °F 12 °F -9 °F (2000)
Degree Days  
Heating Degree Days 52    
Moisture  
Dew Point -1 °F    
Average Humidity 53    
Maximum Humidity 79    
Minimum Humidity 29    
Precipitation  
Precipitation 0.00 in - - ()
Sea Level Pressure  
Sea Level Pressure 30.30 in    
Wind  
Wind Speed 3 mph (East)    
Max Wind Speed 8 mph    
Max Gust Speed -    
Visibility 10 miles    
Events      
Averages and records for this station are not official NWS values.
T = Trace of Precipitation, MM = Missing Value Source: NWS Daily Summary

Daily Weather History Graph

Daily Weather History Graph

Search for Another Location

Airport or City:

Trip Planner

Search our weather history database for the weather conditions in past years. The results will help you decide how hot, cold, wet, or windy it might be!

Date:

Astronomy

Jan. 30, 2014 Rise Set
Actual Time 7:09 AM EST 5:03 PM EST
Civil Twilight 6:38 AM EST 5:33 PM EST
Nautical Twilight 6:05 AM EST 6:07 PM EST
Astronomical Twilight 5:31 AM EST 6:40 PM EST
Moon 6:32 AM EST (1/30) 5:13 PM EST (1/30)
Length of Visible Light 10h 54m
Length of Day
9h 54m
Waning Crescent, 0% of the Moon is Illuminated
Jan 30
Waning Crescent
Jan 30
New
Feb 6
First Quarter
Feb 14
Full
Feb 22
Last Quarter

Hourly Weather History & Observations

Time (EST) Temp. Windchill Dew Point Humidity Pressure Visibility Wind Dir Wind Speed Gust Speed Precip Events Conditions
12:52 AM 12.9 °F 3.8 °F -5.1 °F 45% 30.26 in 10.0 mi Variable 5.8 mph - N/A   Clear
1:52 AM 10.9 °F 2.9 °F -4.0 °F 51% 30.28 in 10.0 mi West 4.6 mph - N/A   Clear
2:52 AM 9.0 °F 0.6 °F -4.0 °F 56% 30.31 in 10.0 mi West 4.6 mph - N/A   Clear
3:52 AM 5.0 °F -4.1 °F -4.0 °F 66% 30.32 in 10.0 mi West 4.6 mph - N/A   Clear
4:52 AM 3.0 °F - -4.0 °F 73% 30.34 in 10.0 mi Calm Calm - N/A   Clear
5:52 AM 1.0 °F -6.7 °F -5.1 °F 75% 30.36 in 10.0 mi NNW 3.5 mph - N/A   Clear
6:52 AM -0.0 °F - -5.1 °F 79% 30.39 in 10.0 mi Calm Calm - N/A   Clear
7:52 AM 1.0 °F - -4.0 °F 79% 30.42 in 10.0 mi Calm Calm - N/A   Clear
8:52 AM 6.1 °F - -0.9 °F 73% 30.43 in 10.0 mi Calm Calm - N/A   Clear
9:52 AM 14.0 °F - -0.9 °F 52% 30.44 in 10.0 mi Calm Calm - N/A   Clear
10:52 AM 18.0 °F - -0.0 °F 45% 30.43 in 10.0 mi Calm Calm - N/A   Clear
11:52 AM 19.9 °F 14.9 °F -0.0 °F 42% 30.38 in 10.0 mi ESE 3.5 mph - N/A   Clear
12:52 PM 21.9 °F 15.7 °F -0.0 °F 38% 30.35 in 10.0 mi East 4.6 mph - N/A   Clear
1:52 PM 25.0 °F - -2.0 °F 31% 30.31 in 10.0 mi Calm Calm - N/A   Clear
2:52 PM 27.0 °F - -2.0 °F 29% 30.30 in 10.0 mi Calm Calm - N/A   Clear
3:52 PM 27.0 °F - -0.9 °F 30% 30.28 in 10.0 mi Calm Calm - N/A   Clear
4:52 PM 18.0 °F 12.7 °F 3.0 °F 52% 30.25 in 10.0 mi SE 3.5 mph - N/A   Clear
5:52 PM 15.1 °F - 1.9 °F 56% 30.26 in 10.0 mi Calm Calm - N/A   Clear
6:52 PM 21.9 °F 12.5 °F 1.0 °F 40% 30.23 in 10.0 mi ENE 8.1 mph - N/A   Clear
7:52 PM 17.1 °F - 1.0 °F 50% 30.21 in 10.0 mi Calm Calm - N/A   Clear
8:52 PM 21.0 °F 14.6 °F -0.0 °F 40% 30.19 in 10.0 mi ENE 4.6 mph - N/A   Clear
9:52 PM 16.0 °F 6.3 °F 3.0 °F 57% 30.18 in 10.0 mi ESE 6.9 mph - N/A   Clear
10:52 PM 18.0 °F - 5.0 °F 57% 30.14 in 10.0 mi Calm Calm - N/A   Clear
11:52 PM 21.0 °F 13.4 °F 3.0 °F 46% 30.11 in 10.0 mi Variable 5.8 mph - N/A   Clear